Regional Weather Roundup
Issued by NWS

Home | Current Version | Previous Version | Text Only | Print | Product List | Glossary Off
Versions: 1 2 3 4 5 6 7 8 9 10 11 12 13 14 15 16 17 18 19 20 21 22 23 24 25 26 27 28 29 30 31 32 33 34 35 36 37 38 39 40 41 42 43 44 45 46 47 48 49 50

000
ASUS43 KDMX 171306
RWRIA

WEATHER ROUNDUP FOR IOWA
NATIONAL WEATHER SERVICE DES MOINES IA
700 AM CST WED JAN 17 2018

NOTE: "FAIR" INDICATES FEW OR NO CLOUDS BELOW 12,000 FEET WITH NO
SIGNIFICANT WEATHER AND/OR OBSTRUCTIONS TO VISIBILITY.

* - THESE STATIONS ARE NOT NWS STATIONS...THUS NOT UNDER NWS
QUALITY CONTROL.  THEY ALSO DO NOT REPORT WEATHER SUCH
AS PRECIPITATION OR FOG.

IAZ001>003-012>014-020>022-031>034-043>046-171400-
   NORTHWEST IOWA

CITY           SKY/WX    TMP DP  RH WIND       PRES   REMARKS
CARROLL *      CLOUDY     7   1  78 SW14      30.48F WCI -10
CHEROKEE *     CLOUDY     6   2  84 S10       30.44F WCI  -9
DENISON *      CLOUDY     3   1  92 SW7       30.51S WCI  -9
LE MARS *      CLOUDY     5   0  78 S10       30.43F WCI -10
ORANGE CITY *  CLOUDY     5   1  85 S10       30.39F WCI -10
SHELDON *      CLOUDY     7   0  72 S17       30.36F WCI -12
SIOUX CITY     CLOUDY     8   1  73 S9        30.46F WCI  -5
SPENCER        CLOUDY     8   0  69 SW15      30.40F WCI  -9
STORM LAKE *   CLOUDY     5   0  78 SW14      30.42F WCI -12
$$

IAZ055>058-069>071-079>083-090>094-171400-
   SOUTHWEST IOWA

CITY           SKY/WX    TMP DP  RH WIND       PRES   REMARKS
ATLANTIC *     CLOUDY    -2  -6  84 SW5       30.55S WCI -12
AUDUBON *      CLOUDY     3   0  85 SW5       30.50F WCI  -6
CLARINDA *     CLOUDY    -4  -8  84 S6        30.61S WCI -16
COUNCIL BLFS * CLOUDY     3   3 100 SW7       30.54R WCI  -9
CRESTON *      CLOUDY     0  -4  85 SW6       30.56S WCI -12
HARLAN  *      CLOUDY    -4  -6  92 S7        30.56F WCI -18
LAMONI         CLOUDY     0  -5  79 SW6       30.58S WCI -12
RED OAK *      CLOUDY    -2  -6  84 S5        30.58R WCI -12
SHENANDOAH *   CLOUDY    -2  -8  78 SW3       30.59F
$$

IAZ047>049-059>061-072>074-084-171400-
   CENTRAL IOWA

CITY           SKY/WX    TMP DP  RH WIND       PRES   REMARKS
AMES           CLOUDY    -3  -6  87 SW3       30.54S
ANKENY *       CLOUDY    -4  -8  84 CALM      30.57F FOG
BOONE *        CLOUDY     0  -4  85 SW6       30.50F WCI -12
CHARITON *     CLOUDY     0  -4  85 SW8       30.58R WCI -15
DES MOINES     CLOUDY    -1  -6  79 SW5       30.55F WCI -11
GRINNELL*      PTCLDY    -3  -7  85 SW7       30.56S WCI -17
KNOXVILLE *    CLOUDY    -2  -8  78 SW8       30.56F WCI -17
MARSHALLTOWN   CLOUDY    -2  -6  83 SW8       30.52F WCI -17
NEWTON *       CLOUDY    -4  -8  84 SW7       30.56S WCI -18
PELLA *        CLOUDY    -3  -6  84 SW6       30.58F WCI -15
PERRY *          N/A     -2  -6  84 S7        30.53S WCI -16
$$

IAZ004>006-015-016-023>025-035-036-171400-
   NORTH CENTRAL IOWA

CITY           SKY/WX    TMP DP  RH WIND       PRES   REMARKS
ALGONA *       CLOUDY     1   1 100 S10       30.42F WCI -14
CLARION *      CLOUDY    -2  -6  84 S9        30.48S WCI -18
ESTHERVILLE    CLOUDY     7   0  73 SW17G23   30.37F WCI -12
FORT DODGE *   CLOUDY     0  -3  87 SW10      30.47F WCI -16
MASON CITY     CLOUDY     2  -4  76 SW12      30.45F WCI -15
FOREST CITY *    N/A      1  -2  85 SW5       30.44F WCI  -8
WEBSTER CITY * CLOUDY     0  -6  78 S10       30.47F WCI -17
IOWA FALLS *     N/A      1  -3  83 SW8       30.50S WCI -13
$$

IAZ007>011-017>019-026>030-037>042-050>054-066-171400-
   NORTHEAST IOWA

CITY           SKY/WX    TMP DP  RH WIND       PRES   REMARKS
CEDAR RAPIDS     N/A     -5 -10  79 CALM      30.54S
CHARLES CITY *   N/A     -2  -6  84 SW8       30.47F WCI -17
CLINTON *        N/A     -6  -9  86 SW6       30.57F WCI -19
DECORAH *        N/A      0  -4  85 VRB6      30.44F WCI -12
DUBUQUE          N/A     -4  -9  79 SW9       30.49F WCI -20
MONTICELLO *     N/A     -4  -9  77 CALM      30.54F
OELWEIN *        N/A     -4  -6  92 SW8       30.50S WCI -19
WATERLOO         N/A     -3  -7  82 W5        30.52F WCI -13
$$

IAZ064-065-067-068-078-171400-
   EAST CENTRAL IOWA

CITY           SKY/WX    TMP DP  RH WIND       PRES   REMARKS
DAVENPORT        N/A     -1  -6  79 SW9       30.59F WCI -16
IOWA CITY        N/A     -2  -8  76 SW3       30.60F
MT. PLEASANT * FLURRIES  -4  -8  84 SW3       30.62R
MUSCATINE *      N/A     -2  -8  78 S6        30.62F WCI -14
QUAD CITIES      N/A     -1  -5  82 SW7       30.59S WCI -14
$$

IAZ062-063-075>077-085>089-095>099-171400-
   SOUTHEAST IOWA

CITY           SKY/WX    TMP DP  RH WIND       PRES   REMARKS
BURLINGTON     CLOUDY    -3  -8  79 W7        30.62R WCI -16
FAIRFIELD *    CLOUDY    -2  -9  71 SW6       30.60R WCI -14
FORT MADISON * CLEAR     -2  -6  84 SW6       30.62S WCI -14
KEOKUK *       CLOUDY    -4  -8  84 SW7       30.63S WCI -18
OSKALOOSA *      N/A     -3  -7  85 SW3       30.58F
OTTUMWA        CLOUDY    -2  -7  79 SW6       30.58F WCI -14
WASHINGTON *   CLOUDY    -4  -8  84 SW6       30.60F WCI -16
$$

ABBREVIATIONS USED IN REMARKS
   TC - TEMPERATURES IN CELSIUS
  WCI - WIND CHILL INDEX
   HX - HEAT INDEX
  VSB - VISIBILITY
$$





USA.gov is the U.S. government's official web portal to all federal, state and local government web resources and services.